Theta_e
313 307 306 307 308 307 307 308 308 308 307 307 306 305 305 305 306 306 307 311 313 311 313 315 315 315 316 316 318 320 323 324 324 324 325 326 327 326 326 326 327 329 330 334 336 337 338 339 339 340 340 339 339 340 340 340 340 341 342 342 341 344 346 345 343 343 342 342 343 345 344 343 345 344 345 345 348 350 349 350 351 349 348 348 347 346
312 306 307 308 307 307 308 308 308 308 307 306 306 305 305 305 304 306 306 308 310 308 312 316 314 314 315 317 318 320 320 320 322 323 324 325 326 326 326 326 328 329 332 333 334 336 337 337 339 339 338 338 336 337 339 339 340 340 342 341 341 342 343 343 344 343 343 343 341 341 342 342 340 341 341 343 345 346 347 347 347 348 347 348 348 347
307 305 308 309 309 308 308 308 308 307 306 306 305 306 304 305 307 307 309 310 312 309 311 315 312 313 315 316 317 318 319 320 322 322 323 325 326 326 326 327 328 329 330 332 333 333 334 335 336 336 337 338 338 337 337 337 338 338 338 339 340 340 340 341 342 341 341 342 343 342 342 340 340 344 343 343 344 345 345 347 346 346 347 346 347 346
304 307 310 310 309 307 307 307 307 307 307 306 306 304 303 306 303 301 305 310 310 307 308 315 311 314 316 316 317 319 319 319 321 322 323 325 326 326 326 328 328 328 328 329 330 332 333 334 335 336 336 337 338 337 338 339 339 339 339 339 339 338 339 338 338 338 340 340 342 342 342 342 342 339 341 343 344 343 342 342 344 344 343 342 343 344
305 308 310 309 308 307 306 307 306 306 305 307 306 305 304 304 305 303 305 309 310 312 311 314 311 311 314 313 313 317 319 319 319 321 322 324 326 328 327 328 329 328 328 326 327 327 329 331 332 334 334 336 335 336 336 336 336 336 336 337 337 335 335 337 337 338 340 339 339 339 340 340 339 338 337 338 338 339 339 339 341 340 341 340 340 342
306 309 309 307 308 307 306 305 306 306 303 305 307 306 306 305 304 304 305 305 304 306 313 311 302 303 312 313 314 315 316 316 319 319 320 321 323 325 324 326 327 325 326 326 326 326 327 327 327 327 326 326 327 327 328 328 327 326 325 327 327 327 327 328 332 334 333 332 330 329 327 326 326 326 326 327 328 331 333 334 339 340 340 339 340 340
307 309 308 306 306 306 306 305 307 306 303 302 304 307 306 305 305 304 303 303 299 298 308 312 299 295 312 311 313 314 314 315 318 318 319 321 322 324 324 325 323 323 323 325 325 325 324 324 324 324 323 322 321 321 322 321 320 321 321 322 323 322 322 324 327 329 329 326 325 324 323 322 321 321 323 326 329 329 328 332 333 333 338 337 338 340
307 307 307 307 306 306 305 304 306 306 303 301 306 307 305 305 304 304 304 303 301 305 305 310 307 299 298 309 315 315 314 314 315 317 319 319 321 322 322 322 322 322 322 321 321 321 321 321 322 323 323 321 321 322 322 322 321 321 320 320 319 319 320 323 325 326 327 323 323 322 321 320 318 318 319 321 321 325 324 325 327 327 329 332 334 337
307 305 305 305 305 304 304 305 305 306 304 304 305 306 305 305 305 305 304 302 303 302 298 304 306 300 298 309 315 314 310 312 313 315 317 319 320 320 320 320 320 320 320 321 318 319 320 321 321 323 321 321 323 323 322 321 320 320 319 318 319 319 320 322 324 323 322 322 322 321 320 318 318 319 318 319 319 319 320 322 319 320 319 323 328 331
308 307 307 306 305 304 306 306 306 306 304 306 306 306 306 306 305 304 303 302 302 300 296 300 304 296 297 311 312 313 310 311 313 315 317 318 319 318 318 319 319 318 318 316 316 316 319 321 321 322 321 321 318 320 320 320 320 320 321 322 321 319 318 321 322 322 323 323 323 321 320 319 318 320 320 319 319 320 321 320 320 319 318 317 320 321
307 311 310 307 306 307 307 308 307 306 306 308 306 305 305 304 304 305 303 303 300 293 297 301 303 300 294 307 310 308 310 312 315 317 318 319 319 319 319 317 316 315 316 315 315 316 318 320 320 320 319 319 319 320 321 321 322 323 323 324 320 320 319 320 321 321 321 322 321 320 319 318 317 318 318 319 320 319 320 319 318 319 319 321 318 318
307 307 306 308 309 308 307 306 307 307 307 306 304 303 302 302 304 303 302 303 293 292 299 302 300 302 293 301 311 314 315 315 316 316 317 317 317 317 317 316 316 315 314 314 313 314 316 318 319 320 317 317 318 319 318 318 318 317 317 317 317 319 320 319 320 322 321 320 321 321 320 319 319 317 317 316 316 316 316 318 317 319 319 320 319 320
304 305 308 307 310 307 306 304 306 306 306 305 304 303 298 295 297 292 299 291 293 294 299 301 300 298 298 303 309 314 314 316 319 319 318 317 316 316 315 316 315 314 314 313 312 313 314 315 316 316 315 315 313 313 313 315 316 316 316 315 318 318 322 322 321 320 321 321 320 319 319 320 320 319 318 316 316 316 316 317 316 317 317 317 317 317
303 307 306 306 306 308 307 301 303 302 304 303 302 300 297 292 291 287 291 295 295 298 300 300 300 295 300 304 309 312 316 317 319 321 321 319 317 315 314 314 313 313 313 313 313 313 313 314 313 314 313 311 313 313 314 315 315 316 315 316 317 314 316 316 317 318 318 320 319 320 319 319 320 319 320 319 318 318 317 316 316 316 316 316 317 318
295 298 303 304 302 308 307 305 305 303 304 303 304 301 299 297 294 287 292 288 291 295 298 301 295 294 296 304 308 314 315 319 321 321 322 321 319 317 315 314 313 313 313 312 312 311 312 314 315 314 313 312 313 312 314 314 314 315 315 315 315 314 314 316 315 315 315 315 318 319 319 319 320 319 319 319 320 320 319 318 318 318 317 317 317 315
299 299 305 306 306 307 305 307 307 305 303 304 304 304 299 298 303 293 297 296 295 294 293 297 294 301 301 310 311 313 313 316 319 320 321 319 318 317 314 313 313 312 312 311 311 312 313 315 316 314 315 315 314 314 315 315 315 316 315 315 314 313 313 314 315 316 317 316 317 317 317 317 317 317 317 316 318 320 321 321 319 318 319 318 317 318
301 299 305 304 306 306 306 306 306 307 296 302 301 298 301 305 301 296 297 300 299 293 290 297 298 301 309 306 310 310 311 313 316 317 318 318 317 316 314 314 313 313 312 312 311 311 314 314 315 316 315 316 317 316 316 316 316 316 316 316 315 314 313 314 314 314 314 317 318 317 317 318 317 316 316 315 316 317 319 320 320 319 319 320 320 319
298 299 304 304 301 306 307 306 307 306 306 303 298 302 304 306 302 298 290 292 291 289 290 298 296 297 297 294 306 309 310 310 313 315 316 318 317 314 314 313 312 312 312 312 311 312 312 313 314 315 316 316 317 317 316 316 317 318 320 320 318 317 315 314 314 314 314 314 314 315 316 317 318 318 318 318 317 317 316 316 318 319 319 320 321 320
305 297 303 305 305 305 306 305 304 305 306 303 302 305 299 293 295 300 294 286 286 287 289 295 297 297 298 299 304 307 307 310 312 314 315 315 315 314 314 314 313 313 312 311 311 311 312 313 314 315 315 316 316 318 318 318 321 323 324 323 320 318 317 317 316 316 315 315 314 314 314 315 314 314 315 315 316 318 318 317 317 316 315 316 316 317
306 296 300 304 304 305 305 304 297 302 303 305 306 303 305 302 298 295 297 297 296 288 288 290 295 293 302 302 307 304 310 311 311 312 313 315 315 315 315 314 312 311 311 310 311 311 312 312 313 312 313 312 313 315 318 321 322 321 320 320 320 319 318 318 317 317 317 318 316 315 314 314 313 313 312 313 314 314 314 314 314 315 316 316 316 315
303 307 293 302 304 304 299 303 300 302 301 300 300 300 301 300 304 301 301 296 294 289 289 289 288 296 303 306 305 306 309 312 312 311 312 313 315 316 316 314 313 312 311 311 311 310 310 312 312 312 313 312 313 314 315 316 317 317 316 315 316 318 319 319 319 319 318 317 316 317 316 315 315 315 314 314 313 313 313 314 314 314 315 315 315 315
299 303 294 299 300 299 300 305 304 303 304 302 302 300 301 299 297 293 290 300 297 294 289 289 287 297 305 306 307 306 310 309 311 311 312 313 314 316 316 315 314 312 313 312 311 311 311 312 313 311 311 311 310 310 311 312 313 315 315 315 316 316 314 315 315 315 315 316 316 317 317 317 317 315 315 315 314 313 312 312 314 314 314 314 314 314
307 306 301 296 299 300 303 303 305 305 304 304 303 300 303 302 301 296 288 293 298 297 297 296 291 294 308 308 308 309 309 309 309 310 310 312 314 316 316 315 314 314 312 311 312 311 310 310 311 311 311 311 310 311 311 311 311 312 314 315 314 314 314 315 315 315 315 314 315 315 315 315 315 315 315 315 314 314 313 313 313 314 314 314 314 314
305 301 297 298 302 304 305 304 304 304 303 301 302 303 302 299 300 298 297 299 295 297 294 293 288 294 306 309 309 310 310 309 312 311 311 311 312 314 315 314 313 313 312 314 311 310 311 311 311 311 311 310 310 311 311 312 311 312 313 313 314 313 314 313 314 314 313 313 314 315 315 314 315 315 315 315 315 315 315 315 315 315 314 312 312 312
296 302 299 294 294 297 300 301 301 302 302 300 300 302 302 301 301 301 301 302 292 295 295 292 286 292 307 308 308 309 308 308 308 310 311 309 312 313 313 313 313 313 313 310 310 309 309 309 307 307 307 307 308 308 310 310 310 310 311 312 311 312 313 313 313 313 313 313 313 313 313 314 314 314 314 314 314 315 315 315 314 314 313 313 313 313
301 300 298 291 287 285 285 288 291 295 298 301 301 301 301 300 299 298 291 295 289 295 296 292 291 299 305 306 307 308 307 308 310 310 311 311 313 312 312 312 312 312 310 309 309 308 308 307 307 306 307 306 307 307 307 308 309 309 310 311 312 312 312 312 313 312 312 312 311 311 312 312 312 312 313 313 313 313 313 312 313 312 312 312 312 312
303 304 302 299 296 293 296 298 303 302 302 297 300 300 300 301 301 300 299 294 291 296 294 297 297 298 301 303 304 306 307 306 308 309 308 309 311 313 313 312 311 309 308 308 308 309 308 307 307 306 307 307 307 308 308 308 308 309 309 310 311 311 312 312 312 311 311 311 311 310 310 310 310 310 311 311 311 311 311 311 311 311 310 312 311 311
304 299 302 302 301 300 301 301 302 302 299 300 299 299 301 301 301 299 294 293 300 296 290 298 300 298 300 303 304 305 307 308 307 308 308 309 309 310 309 309 308 308 307 307 306 306 306 307 307 307 308 308 307 308 308 308 308 308 309 309 310 310 311 311 311 310 309 309 309 308 309 309 309 309 309 309 309 309 309 310 310 310 310 310 310 310
302 296 301 302 300 302 302 302 303 302 302 302 301 301 300 301 302 299 299 300 300 293 291 298 301 299 301 303 305 307 308 308 307 307 309 309 308 308 307 306 305 305 305 304 306 306 306 306 306 308 309 309 309 309 308 308 308 308 309 309 309 310 310 310 309 308 308 307 307 308 308 309 308 309 309 309 309 309 309 309 309 309 309 309 310 310
304 298 302 302 300 301 302 301 302 301 301 301 300 301 301 301 301 301 301 302 301 299 300 300 300 301 303 304 306 308 310 308 307 309 309 306 305 305 304 304 304 303 303 303 304 304 306 306 307 308 309 309 308 308 307 307 307 307 307 308 308 309 310 309 307 307 307 306 307 307 308 308 308 308 308 308 308 308 308 308 308 308 308 308 308 309
302 295 300 301 298 298 301 302 301 301 300 298 300 301 301 301 301 301 301 301 302 301 301 301 300 299 305 308 308 310 310 308 307 305 305 305 304 304 303 303 303 303 302 303 303 305 306 307 307 308 307 308 307 307 307 307 307 307 307 307 308 308 308 308 306 306 306 306 307 307 307 307 307 307 307 307 307 307 307 307 307 307 307 307 308 308
304 297 303 301 294 295 300 300 300 300 300 299 298 299 300 300 299 300 298 302 301 299 301 301 298 299 305 309 309 308 306 304 304 304 304 304 304 303 303 302 302 303 302 302 303 305 306 306 306 306 306 306 306 307 306 306 306 306 306 306 306 307 307 307 306 306 306 306 306 306 306 306 306 306 306 306 306 306 306 307 306 306 307 307 307 307
303 300 297 296 292 292 299 300 299 299 298 294 295 299 301 301 301 302 303 304 303 304 299 295 298 304 307 305 304 303 304 303 303 303 304 303 303 302 302 302 302 302 303 304 304 305 305 305 306 306 306 306 306 306 306 306 306 305 306 306 306 307 307 306 306 306 305 305 306 306 306 306 306 305 305 305 305 306 306 306 306 306 306 306 307 307
303 301 297 300 291 292 297 299 299 294 286 288 301 305 304 302 302 300 300 302 304 305 302 304 304 307 305 304 303 303 302 303 304 305 305 304 303 303 302 302 302 303 304 305 305 305 305 306 306 307 307 307 307 307 307 307 306 306 307 306 306 306 306 305 305 305 305 306 305 306 306 305 304 304 304 305 305 305 306 305 305 306 307 306 306 306
300 300 296 299 292 291 296 297 289 284 287 300 305 306 306 305 304 302 302 303 305 305 305 304 305 306 306 306 305 305 304 304 305 303 303 303 304 304 303 302 303 304 304 305 305 305 306 306 306 307 307 307 306 307 306 306 306 306 305 306 305 305 305 305 305 305 305 305 305 305 305 305 305 304 304 304 305 305 305 305 306 305 306 306 306 306
298 297 296 294 295 294 291 290 282 283 297 302 304 306 308 306 305 304 301 303 304 305 305 304 305 306 306 304 304 305 304 304 304 304 305 304 304 304 303 303 304 305 304 305 305 306 306 305 306 306 306 307 306 305 305 305 305 305 304 305 304 304 305 304 304 304 304 304 305 305 304 304 304 304 304 304 304 304 304 305 305 305 306 306 307 308
303 300 298 292 297 288 289 289 289 297 297 299 300 301 301 300 301 299 292 299 305 306 306 305 306 307 304 303 303 303 303 302 300 300 304 303 303 304 304 305 305 305 305 306 306 306 307 307 306 307 306 306 305 304 305 305 304 304 303 303 303 304 304 304 303 303 304 304 304 304 304 304 303 303 303 304 304 304 305 304 304 305 307 307 307 307
304 297 299 293 291 295 289 287 288 287 284 292 301 305 308 307 307 307 301 297 306 307 308 307 306 305 303 302 301 301 302 298 295 298 302 303 303 303 304 304 305 306 306 306 306 306 306 306 306 306 305 305 304 304 304 304 304 303 302 302 302 302 303 303 302 303 303 304 305 305 304 304 304 303 304 304 304 304 304 305 306 307 308 306 305 305
303 303 300 294 290 292 289 286 285 284 288 299 302 305 307 308 307 308 300 294 304 307 307 306 305 304 302 301 301 301 297 293 294 297 299 302 304 304 304 305 305 305 306 305 305 304 305 305 305 304 305 304 303 303 304 304 303 302 301 302 302 302 302 302 303 303 303 304 304 304 304 304 305 304 304 304 304 305 305 306 305 306 307 306 304 303
298 298 296 293 290 291 289 287 285 289 290 299 304 303 305 307 306 301 287 288 300 303 304 304 303 302 302 302 300 298 295 291 294 297 302 304 305 305 305 305 305 305 305 305 305 305 304 304 304 303 303 302 302 303 303 304 302 302 301 301 301 300 301 302 303 303 304 304 305 305 305 305 305 305 305 304 304 305 305 306 304 304 304 303 302 302
294 294 294 290 291 290 288 289 291 292 300 304 302 302 303 306 302 289 284 292 297 300 302 304 302 301 301 299 299 294 297 300 300 303 305 305 304 305 306 306 305 305 304 305 304 303 303 303 303 302 302 302 302 303 303 303 302 301 301 300 300 300 301 302 302 303 303 304 304 305 305 305 306 305 305 305 305 304 304 303 303 302 302 301 301 301
292 293 292 294 291 290 291 289 289 293 301 303 302 301 304 300 288 287 296 300 301 301 303 303 301 301 300 299 298 299 300 301 302 302 303 304 304 304 304 304 304 304 305 305 304 303 303 302 302 301 301 302 302 303 302 302 301 301 300 300 299 300 301 302 302 302 303 303 304 304 304 305 305 306 305 305 304 303 303 303 303 303 302 302 301 301
292 289 289 289 291 292 290 288 286 283 294 303 301 297 301 293 294 296 298 300 301 301 299 300 300 299 300 300 300 300 300 300 301 302 303 304 303 303 304 303 303 303 303 303 303 303 301 300 300 300 301 302 302 302 302 302 301 300 300 299 300 301 301 301 301 301 302 302 303 303 303 304 305 305 305 305 304 303 302 303 302 301 300 299 298 297
298 288 290 292 295 288 287 285 285 290 297 303 300 293 298 300 300 302 301 297 299 299 300 300 300 300 300 299 299 299 300 300 302 303 303 303 304 304 304 304 304 303 303 303 302 302 301 300 300 300 301 301 302 302 302 301 299 299 298 298 299 300 300 300 300 300 300 301 301 301 302 304 305 304 304 303 303 303 303 302 300 299 299 298 296 295
299 295 295 289 297 291 290 292 293 298 299 301 301 300 301 302 302 303 303 299 298 298 300 298 299 301 300 300 300 301 300 302 302 303 302 303 303 303 303 303 303 302 302 301 301 301 300 299 299 299 300 301 301 301 301 300 299 298 297 298 298 298 298 299 299 299 299 299 300 300 301 303 304 304 304 304 305 304 303 301 301 298 299 297 296 296
300 300 301 298 294 301 302 299 301 298 299 300 300 300 299 300 303 302 300 300 300 301 300 299 301 301 301 303 301 301 301 302 302 302 303 303 303 303 303 302 302 302 301 301 300 300 299 299 299 299 299 300 300 300 300 300 298 296 297 298 298 298 298 298 298 298 298 299 299 300 301 302 304 305 305 304 305 306 306 303 302 300 298 298 297 297
298 300 297 292 296 293 288 302 296 297 296 297 299 299 301 301 301 301 301 300 300 301 301 301 301 302 302 303 301 301 301 302 302 302 302 302 302 302 302 301 301 300 299 299 299 299 299 299 298 298 298 298 299 299 299 299 298 298 298 298 298 298 298 298 298 298 299 298 299 301 301 302 303 303 304 305 305 305 305 303 302 300 299 298 298 297
290 300 291 293 293 291 289 293 294 297 297 298 299 298 297 299 300 300 301 302 302 303 302 302 302 301 302 301 302 301 301 302 301 301 301 301 301 301 301 300 300 299 299 299 299 300 299 299 298 298 298 298 298 299 298 298 298 299 299 299 298 298 298 298 297 297 298 299 300 300 301 303 302 303 304 304 304 304 304 303 303 300 299 299 298 296
293 295 285 292 289 292 296 296 295 295 294 296 298 300 301 301 300 299 300 301 301 302 302 303 304 303 302 302 302 302 301 302 302 302 301 301 301 301 300 299 299 298 298 299 300 300 299 298 298 298 297 297 298 298 298 298 298 298 299 298 298 298 297 297 297 297 298 299 299 300 302 303 304 304 304 304 304 304 304 303 302 301 300 301 300 299
292 287 292 290 286 286 288 291 294 287 288 293 296 299 300 301 301 301 302 301 302 301 301 301 301 303 303 303 302 302 301 301 301 302 301 301 300 300 299 298 298 298 298 299 300 300 299 299 298 298 297 297 298 298 297 297 297 298 298 298 298 297 296 296 296 297 297 299 300 300 300 300 302 304 304 303 302 302 303 300 298 298 300 299 299 295
290 291 291 286 286 286 293 294 296 293 293 296 299 300 300 302 301 300 300 300 301 301 302 301 300 301 301 302 303 302 302 301 302 302 301 300 300 299 298 298 298 298 299 299 299 299 299 299 298 298 297 297 298 298 297 297 297 297 297 297 297 297 296 296 296 296 297 298 299 299 298 299 301 303 302 302 302 302 301 301 302 297 295 295 296 294
Wind_Speed
2 7 6 6 1 4 3 4 5 5 4 4 5 6 7 6 7 6 4 3 1 2 3 3 4 4 3 2 2 2 1 2 2 2 2 3 5 4 6 6 7 7 7 7 9 9 10 10 9 9 9 10 10 9 9 8 7 6 6 7 7 6 5 4 4 4 3 3 3 2 1 2 0 1 2 3 3 4 4 4 5 5 4 5 5 6
6 6 7 1 3 3 4 4 4 4 3 5 5 7 7 5 6 6 4 5 3 8 3 3 4 4 3 2 3 2 4 2 1 2 2 3 5 5 7 7 7 7 8 9 9 10 10 10 10 10 9 10 11 10 9 9 9 8 8 8 7 6 5 5 4 3 3 3 3 1 1 3 3 3 3 3 3 4 5 6 6 6 6 6 7 6
7 9 1 3 2 2 3 4 4 5 5 4 7 6 6 8 1 5 6 5 4 6 2 6 4 4 4 4 3 4 4 3 1 0 0 3 6 5 7 8 8 9 9 9 10 10 10 11 10 10 10 10 11 11 10 9 9 8 8 8 7 6 5 5 5 4 4 4 3 3 3 3 2 2 3 3 3 4 5 5 5 6 6 7 7 6
8 9 4 2 0 4 5 4 5 7 7 8 7 8 9 5 6 2 8 5 3 5 3 7 5 4 6 5 4 4 5 4 4 3 3 4 4 7 8 8 9 9 10 10 10 11 10 11 10 9 9 9 8 7 7 7 7 6 6 7 7 6 5 4 5 5 5 5 4 3 2 2 2 2 3 3 2 3 4 4 5 5 5 6 6 6
9 9 4 2 4 6 9 5 7 7 9 8 9 10 10 7 2 7 4 2 3 5 5 6 7 5 7 8 6 7 5 6 6 6 5 3 4 4 4 6 8 9 9 9 10 10 10 10 9 9 9 7 7 6 6 5 5 5 7 7 7 6 5 4 4 4 3 3 2 1 1 1 1 1 1 2 2 3 3 4 4 5 6 7 7 7
10 3 3 6 6 7 8 9 10 9 9 9 9 9 9 4 8 3 3 6 7 6 9 8 7 8 9 11 9 8 8 9 8 8 8 6 7 6 7 7 7 7 7 8 9 10 9 9 10 10 10 9 8 7 6 6 6 6 7 7 6 5 5 5 5 5 4 4 4 3 3 3 3 3 3 4 4 5 5 5 5 6 5 7 7 7
4 3 2 6 7 6 8 10 2 5 8 9 4 1 1 6 6 5 6 5 7 8 6 10 8 6 8 12 12 11 11 10 10 10 10 10 10 10 8 9 8 8 8 7 8 9 9 9 9 9 8 8 8 7 6 6 7 7 7 7 5 5 4 4 5 5 4 5 4 4 4 4 3 2 3 3 3 4 5 5 6 6 5 6 7 7
4 4 4 4 6 8 7 10 6 7 7 5 7 2 0 6 8 8 8 8 9 9 6 12 9 9 8 9 12 12 11 11 12 13 12 12 12 11 9 9 8 9 9 9 9 9 8 8 8 8 8 7 7 6 5 5 5 7 6 5 5 5 4 3 4 5 5 4 4 4 4 3 3 3 3 3 2 2 3 4 5 5 5 7 7 7
5 2 5 6 5 7 5 7 5 4 7 4 3 5 6 6 8 9 9 9 10 8 10 10 10 9 9 7 11 11 11 13 14 14 15 14 14 12 11 9 9 9 9 9 9 8 7 7 7 6 7 7 7 5 5 5 5 5 5 5 5 5 4 4 5 6 6 5 4 4 3 3 3 2 2 1 2 2 3 3 4 4 5 5 6 7
3 3 2 5 6 5 3 0 1 2 9 5 4 4 6 8 9 10 9 9 9 8 11 9 11 7 7 10 8 9 9 12 14 15 15 15 16 14 12 11 11 9 8 8 9 8 7 6 6 5 6 6 5 5 5 5 4 4 4 5 5 5 4 4 5 5 5 4 3 3 3 3 2 1 1 1 1 1 2 3 3 3 4 4 5 6
3 3 2 5 4 5 3 1 3 4 6 5 5 9 10 9 9 8 8 8 9 8 12 5 11 7 8 8 9 9 9 11 10 11 12 15 15 15 13 13 12 11 10 9 9 8 7 5 5 5 5 5 5 4 4 4 4 4 4 4 5 5 4 5 5 4 4 3 2 2 2 2 2 1 1 2 1 2 2 3 3 3 3 3 4 5
7 6 6 3 1 3 2 6 6 4 4 5 7 7 8 10 8 8 8 6 6 9 6 5 5 7 8 3 8 9 5 7 11 15 17 18 18 16 14 13 13 12 11 10 10 9 8 6 5 5 6 6 5 5 5 4 4 3 3 3 5 5 4 4 3 3 2 2 1 1 1 1 1 2 2 3 3 3 4 4 4 3 4 3 4 4
8 10 5 6 2 4 5 8 8 8 8 7 8 7 7 6 6 5 5 5 6 5 6 5 5 6 10 9 0 10 8 6 9 11 16 18 18 17 15 15 13 12 12 12 10 10 8 8 7 7 7 5 5 4 4 3 3 2 2 2 2 3 3 3 3 2 2 1 1 0 1 1 1 2 3 4 4 4 4 4 5 5 5 5 5 4
5 6 9 9 6 7 6 8 4 8 7 7 6 5 7 7 5 6 7 7 7 2 5 2 2 9 9 3 4 5 7 6 7 9 13 17 18 18 17 15 14 13 13 12 11 10 9 8 8 7 6 5 4 3 2 2 1 0 0 1 1 0 1 1 1 2 1 1 1 1 2 2 3 4 4 5 5 5 5 5 6 6 6 6 6 6
6 6 9 10 5 9 8 7 7 7 4 5 3 7 7 7 7 6 7 7 6 6 1 7 5 4 7 5 4 6 4 1 5 8 11 14 16 16 16 15 15 14 14 12 10 10 10 8 7 6 5 4 4 3 3 2 2 2 2 3 4 4 3 2 3 3 4 3 3 3 3 3 4 4 5 5 5 6 6 6 7 7 7 7 7 7
10 10 5 3 6 5 6 2 3 4 9 3 3 2 7 6 2 9 8 8 10 10 10 6 5 3 2 8 6 4 5 5 6 8 11 14 14 15 15 16 15 14 13 12 11 10 9 8 7 6 5 4 4 4 4 5 4 4 5 5 6 6 6 6 6 6 5 6 5 5 6 7 7 6 6 7 7 7 7 7 8 8 8 8 8 8
3 7 9 6 3 4 2 1 3 3 5 4 4 7 2 5 5 7 8 2 4 6 11 6 10 9 8 6 7 6 5 7 8 10 12 14 16 16 15 15 15 14 13 12 11 10 9 8 7 7 7 6 6 5 6 7 6 7 7 7 8 9 8 9 9 9 8 8 8 8 8 8 9 9 9 8 10 10 9 9 9 9 9 10 9 9
9 6 8 7 9 7 1 2 3 6 6 5 8 1 4 1 6 4 7 2 4 10 7 5 9 9 9 3 6 9 8 9 10 11 13 14 15 17 16 15 15 15 14 13 11 10 9 9 9 8 7 8 8 8 8 9 8 7 7 8 9 9 10 10 10 11 10 11 11 11 11 11 11 10 10 10 11 10 10 10 10 10 10 10 10 9
3 9 7 9 3 7 5 5 8 7 5 8 6 5 7 2 7 6 2 5 7 9 7 9 11 11 9 6 9 11 10 11 11 11 12 15 16 17 16 16 15 14 13 12 12 11 9 8 9 9 9 9 9 9 9 9 8 8 7 8 9 11 12 12 11 11 11 11 10 10 12 13 13 13 12 12 12 11 11 12 12 13 13 12 12 11
3 8 5 5 6 6 7 7 9 6 7 4 4 7 4 6 9 10 6 8 8 11 9 13 11 10 5 7 3 2 7 9 11 12 14 16 19 17 16 15 15 15 13 12 11 10 9 9 10 10 10 11 11 11 11 11 9 10 10 10 11 12 13 13 14 13 13 13 12 13 14 14 15 15 15 15 14 13 14 14 14 14 14 14 13 13
7 3 9 3 4 3 8 9 10 9 6 7 7 8 5 7 3 6 9 9 9 8 9 10 10 8 6 2 4 3 3 5 10 12 12 14 15 16 16 15 15 15 13 12 11 10 10 9 9 9 9 9 10 9 9 9 10 10 10 10 11 11 11 12 12 12 13 13 14 15 16 16 16 17 16 18 18 17 16 16 16 16 15 14 14 14
4 7 8 9 8 8 9 6 4 2 5 8 7 8 7 7 7 8 10 9 11 10 9 8 13 9 1 3 3 0 3 2 5 7 8 10 13 15 15 15 14 14 14 12 11 9 8 7 7 8 8 9 9 10 11 10 9 8 8 8 8 8 8 9 10 10 12 12 13 15 16 17 16 17 17 18 18 18 18 18 17 17 17 17 16 16
4 5 9 9 10 11 3 3 4 4 4 9 9 10 9 9 9 10 11 8 7 10 12 11 10 13 4 5 3 2 2 2 0 2 5 5 7 11 14 14 14 14 13 12 10 8 7 6 6 5 7 8 8 8 8 7 7 7 7 8 8 8 9 10 11 11 11 12 13 14 15 16 16 17 19 19 18 19 20 19 19 17 17 17 16 16
2 6 9 12 12 14 7 4 4 3 5 9 11 12 10 10 11 11 11 8 8 8 6 6 11 8 6 3 4 3 3 2 2 3 3 4 4 6 11 12 14 14 12 10 9 7 5 5 5 6 7 7 7 6 7 6 7 7 8 8 9 10 12 12 12 13 13 14 15 16 16 16 16 18 18 18 17 19 19 17 17 17 18 18 17 17
4 5 8 10 9 8 9 6 7 4 6 8 9 7 10 11 10 9 8 4 8 12 14 9 14 7 7 3 3 4 5 5 4 4 3 4 5 6 9 11 12 13 11 11 9 8 7 6 7 8 8 6 6 6 6 7 8 9 9 10 11 12 12 13 13 14 15 15 17 16 16 17 17 17 18 18 17 20 20 19 17 16 18 17 18 19
7 8 7 8 10 10 9 7 5 4 6 6 7 7 8 12 11 7 7 8 10 10 14 12 13 13 2 7 6 6 6 6 5 5 4 3 4 6 7 9 10 10 10 10 9 8 7 6 6 5 5 7 7 7 8 9 10 11 11 12 12 12 13 13 13 14 14 15 16 16 17 17 17 18 19 20 20 21 22 21 21 21 20 21 23 23
9 9 11 12 13 14 13 13 3 4 9 10 9 10 11 12 14 13 11 12 12 9 11 14 15 16 17 11 10 10 8 9 7 6 5 5 6 6 7 8 9 10 10 10 8 6 5 5 5 6 5 6 8 9 9 10 12 12 13 13 13 13 13 13 13 13 14 15 16 16 16 18 19 18 19 19 19 19 19 20 20 20 20 20 21 22
8 12 14 17 20 20 21 19 19 18 16 16 18 17 15 15 15 16 12 13 9 11 16 16 15 18 16 14 14 14 12 5 6 6 6 6 7 7 8 9 10 9 9 7 6 6 5 4 4 4 5 6 9 10 11 12 13 14 14 13 13 13 12 11 12 14 15 15 15 16 18 17 17 17 18 17 17 17 17 17 18 18 18 19 21 21
10 11 15 16 19 20 20 21 19 17 18 16 17 18 19 18 17 18 18 16 15 13 18 18 16 18 18 17 17 15 10 7 6 6 6 6 7 8 9 10 11 10 8 7 5 4 4 4 4 5 6 8 9 11 13 13 13 12 12 13 13 12 13 13 14 15 15 15 16 17 16 16 15 15 16 17 18 18 18 18 18 16 18 18 19 18
7 13 17 17 21 20 20 21 19 20 20 21 21 21 21 21 22 22 22 19 20 21 23 23 23 23 22 20 18 16 5 6 4 3 5 7 9 9 10 9 9 8 7 5 4 3 3 4 5 7 8 10 12 13 13 12 12 12 13 12 13 13 13 13 15 15 16 17 17 16 17 17 16 16 17 17 18 19 18 18 18 18 18 19 20 20
7 10 12 15 16 20 21 21 21 22 23 25 25 25 24 22 22 23 22 21 21 23 25 24 25 25 19 18 18 6 3 4 6 7 8 8 9 9 9 9 7 6 4 4 3 2 3 5 7 8 10 11 12 12 12 12 12 12 13 13 13 13 13 15 16 16 16 16 16 16 17 17 17 17 18 18 18 18 19 20 18 18 19 19 19 20
8 10 12 13 13 18 20 20 23 24 24 25 27 29 25 23 23 21 18 18 18 20 22 22 21 19 15 6 4 4 5 6 7 8 7 8 9 8 9 7 6 5 3 3 2 4 6 8 9 10 11 12 13 13 12 11 12 12 13 13 13 13 15 15 15 15 16 16 17 17 18 17 18 18 19 19 19 19 19 18 19 20 19 19 20 20
12 11 11 12 16 18 22 20 22 25 24 22 26 25 22 24 24 23 21 20 20 20 19 18 18 17 8 7 7 7 7 6 7 7 7 8 8 7 7 6 4 3 1 2 5 6 8 9 10 11 11 11 11 12 13 13 13 13 13 13 13 14 15 15 15 16 17 17 17 18 17 18 18 19 19 19 20 19 18 20 20 21 21 21 20 20
14 16 16 14 15 15 21 21 17 14 16 21 14 13 18 22 23 24 21 21 21 19 17 17 17 4 8 7 7 7 8 7 6 5 3 5 6 6 5 4 2 1 2 4 6 8 9 9 9 10 11 12 12 12 12 12 13 13 13 14 15 15 15 16 16 16 17 18 18 18 18 18 18 19 19 19 20 19 21 21 21 20 19 18 19 20
17 16 14 12 14 16 17 17 13 18 21 15 11 13 15 18 20 22 23 23 22 21 23 24 23 9 8 7 6 7 6 6 6 7 7 5 3 3 4 3 2 1 4 6 8 9 9 10 11 11 11 11 12 11 12 12 12 13 15 15 15 15 16 16 17 17 17 18 18 18 18 19 19 20 19 19 20 21 21 21 20 20 18 17 18 19
17 16 12 13 13 12 14 13 16 17 13 10 11 11 4 12 16 18 20 19 20 20 20 22 20 18 7 7 6 6 8 7 6 5 5 5 4 4 3 3 1 2 5 7 8 9 9 10 11 11 11 11 11 12 12 13 14 15 15 15 16 16 16 17 17 18 17 17 18 18 18 19 20 20 20 21 21 22 22 22 21 20 19 19 19 19
22 18 16 17 12 15 13 17 21 19 23 22 18 9 9 12 12 13 13 16 19 18 20 18 16 9 9 8 8 8 7 6 6 7 8 7 7 4 2 1 2 5 6 7 8 9 9 9 10 10 11 11 12 14 14 14 14 14 15 16 15 16 16 17 17 17 18 17 18 18 18 18 19 20 20 21 22 22 22 22 21 21 19 19 19 19
20 20 16 18 10 15 17 18 16 16 19 18 19 18 13 14 13 13 13 17 17 17 14 15 14 10 10 10 9 9 7 6 7 7 9 8 6 4 3 3 4 5 6 7 7 8 9 9 9 10 11 14 15 14 14 14 14 15 15 15 16 16 16 17 17 17 17 17 18 18 17 18 19 19 20 21 22 22 22 21 20 20 17 20 18 17
19 19 18 17 15 12 17 17 16 15 14 13 14 4 7 5 8 6 11 16 9 10 10 11 10 11 11 11 11 9 7 7 7 5 9 6 4 3 4 4 4 5 6 7 9 10 10 9 10 11 13 14 15 14 14 14 15 14 15 15 15 15 16 16 16 16 17 18 18 18 18 18 18 20 21 22 22 20 21 21 19 17 13 12 12 15
15 14 13 16 16 16 16 16 18 9 10 9 6 8 7 7 6 8 13 8 5 3 5 7 10 11 10 11 11 8 7 6 4 9 6 5 3 2 3 4 5 6 7 8 9 8 9 10 11 12 12 13 13 13 14 14 14 14 14 15 15 15 15 16 17 18 18 18 18 18 18 17 19 20 20 21 21 20 18 14 13 15 16 16 17 19
11 11 13 17 16 17 18 17 14 13 14 7 8 9 8 9 9 10 14 0 1 4 5 7 9 10 10 10 8 6 4 4 5 5 5 3 1 3 2 3 5 6 8 8 8 9 9 10 11 12 12 12 12 13 13 13 14 15 15 16 16 17 17 17 18 18 18 18 18 19 19 18 18 20 19 19 18 18 18 17 16 17 18 18 16 16
16 13 10 11 15 16 14 16 16 15 11 5 5 9 10 9 8 11 2 1 4 6 6 7 10 7 8 8 5 1 5 5 5 3 0 0 2 3 4 5 6 7 8 8 8 9 10 10 11 11 12 12 12 13 13 13 14 15 15 15 17 18 17 17 17 17 18 18 19 18 18 17 17 18 17 18 18 17 16 16 17 16 15 14 14 16
10 10 12 12 9 10 11 15 14 15 4 8 12 2 2 10 2 5 5 4 5 6 8 6 7 7 4 4 3 4 3 2 1 0 1 3 3 4 5 7 8 9 9 9 9 11 10 10 11 11 12 12 13 12 13 14 16 15 15 16 17 16 17 17 17 18 18 18 18 18 17 17 19 18 16 16 18 19 18 15 14 14 12 13 13 13
7 8 9 11 9 13 11 12 8 2 5 7 3 3 4 8 5 4 5 3 4 4 5 6 6 5 4 3 3 3 2 2 3 3 3 4 4 4 6 7 8 8 9 11 11 10 10 10 10 11 12 12 12 12 12 13 14 14 16 17 15 15 16 16 17 17 17 16 16 17 17 18 18 16 14 18 18 18 15 13 12 13 12 12 12 12
5 8 4 9 5 8 7 3 3 3 0 2 6 6 4 5 5 4 5 4 2 3 4 4 4 5 5 4 4 4 5 4 3 3 5 5 5 6 7 8 10 10 11 10 9 9 9 9 11 12 12 12 12 12 12 13 14 16 17 16 15 16 16 16 17 16 16 17 16 16 17 17 17 16 15 17 17 17 13 14 14 13 10 11 13 13
13 14 9 10 11 12 11 8 4 4 2 3 4 3 3 2 1 1 2 2 2 4 5 5 7 7 7 7 6 6 5 4 5 6 6 6 7 7 9 10 10 10 10 9 8 8 9 10 11 12 12 12 12 12 12 12 13 15 16 15 15 15 15 15 16 16 17 16 16 16 16 17 18 18 17 18 15 14 13 13 12 11 11 11 13 14
11 10 10 11 11 11 7 5 3 4 3 4 4 4 3 3 2 2 3 3 4 6 8 6 7 7 7 7 6 5 6 6 7 7 7 7 8 9 9 9 9 9 9 8 8 8 9 10 10 11 12 13 13 12 12 13 13 14 15 15 15 15 15 15 15 15 15 16 17 17 15 16 15 16 17 16 15 14 14 14 12 12 13 13 14 15
8 11 12 10 10 8 7 1 1 3 1 3 3 2 5 4 5 5 6 5 6 8 7 8 5 5 5 6 7 7 7 6 7 7 7 8 8 8 8 8 9 8 7 6 7 8 9 9 10 11 13 13 12 12 12 13 13 14 15 15 14 14 14 14 14 14 14 17 17 15 14 14 18 18 16 16 13 12 14 13 11 13 14 14 15 16
10 11 8 7 9 10 10 5 5 6 5 7 5 4 4 4 6 7 7 4 5 6 7 6 7 7 7 7 6 6 7 7 7 7 7 8 8 8 8 8 8 7 6 7 7 8 8 9 10 12 12 12 12 12 12 13 13 14 15 14 14 13 13 13 14 14 15 16 14 12 12 13 15 16 16 16 15 14 13 12 11 13 14 15 13 16
12 14 10 10 11 10 5 3 3 2 0 3 5 6 5 4 4 5 6 8 7 7 7 7 8 8 7 7 6 6 6 7 6 6 7 7 7 8 8 7 6 6 5 6 7 7 8 9 10 11 12 11 11 12 13 13 13 13 14 14 13 13 13 13 12 13 14 13 12 12 13 12 13 15 15 15 14 16 17 15 14 12 11 13 21 27
13 14 9 10 11 9 2 4 1 2 9 5 3 3 4 5 6 7 8 8 8 8 8 8 8 8 8 7 6 6 6 6 6 5 6 7 7 6 6 6 5 4 5 6 7 7 8 9 10 11 12 11 11 12 12 13 14 14 14 13 13 13 13 12 11 11 12 12 11 10 13 13 12 14 14 14 14 15 16 15 14 14 15 18 24 26
Wind_Direction
360 257 226 226 289 20 355 316 321 329 320 288 249 261 275 293 259 117 147 102 138 270 76 86 116 127 111 78 88 112 204 193 174 171 136 126 122 116 107 95 92 96 110 123 121 118 118 118 115 111 108 107 107 106 106 108 105 104 104 102 91 83 76 71 78 74 71 84 100 90 52 346 252 270 301 273 253 264 278 286 290 281 262 258 262 264
249 258 236 295 8 343 331 313 279 275 261 269 280 277 273 209 280 107 145 167 184 277 143 139 148 135 129 140 152 177 215 182 181 151 125 153 127 120 125 131 132 128 127 127 124 123 122 121 120 117 115 115 109 106 109 104 105 104 100 95 90 87 77 70 64 76 68 56 48 353 3 318 325 334 318 311 329 331 316 308 303 297 283 276 273 271
227 243 113 116 37 316 270 271 256 263 261 234 272 280 280 267 319 119 130 159 171 248 168 179 196 164 168 168 181 205 213 193 201 140 97 202 154 142 143 147 149 143 138 134 134 129 125 122 121 117 113 108 105 110 109 110 110 105 96 88 83 75 72 63 59 63 63 51 38 7 14 349 334 6 350 312 316 313 308 311 306 303 309 304 299 292
238 234 145 102 297 274 242 235 242 243 249 262 246 246 261 26 307 221 138 159 171 282 295 192 231 177 168 181 185 207 198 205 195 209 197 218 202 154 162 161 157 149 145 137 133 130 129 126 124 119 113 108 109 112 113 110 104 96 92 92 92 90 82 75 71 77 78 65 54 65 30 62 20 0 344 312 307 333 325 317 341 348 348 336 321 309
275 41 31 308 270 265 274 239 245 250 261 229 251 275 275 282 238 286 24 80 165 198 238 184 241 214 192 186 189 179 182 178 193 192 192 204 215 183 139 160 160 149 146 137 129 125 122 120 114 110 111 112 108 100 97 96 93 91 91 89 86 82 78 73 72 76 77 82 94 77 134 127 124 137 346 338 322 332 317 294 308 311 304 300 295 292
246 77 14 265 265 255 259 254 237 264 267 281 231 252 296 325 284 223 256 277 268 232 186 206 262 257 179 201 192 168 183 193 186 193 195 190 197 199 180 175 162 149 139 136 130 123 119 112 110 108 105 102 100 95 85 85 87 89 86 83 82 80 72 70 67 62 63 60 50 43 36 37 39 43 28 24 7 349 347 343 330 311 317 305 297 294
356 105 261 294 277 268 255 265 294 237 276 269 24 80 253 274 283 273 260 267 266 292 130 197 272 294 167 198 189 173 190 192 193 202 201 201 201 204 194 178 176 158 144 137 132 131 124 123 117 111 108 109 105 98 95 88 83 80 77 76 78 82 85 76 71 67 73 73 67 59 53 50 37 35 49 17 6 343 339 333 333 331 327 322 316 310
197 193 235 234 258 255 251 241 165 241 265 281 74 23 271 266 260 268 269 252 274 284 232 205 240 274 283 206 178 173 192 191 198 203 200 202 202 200 193 182 167 161 156 148 143 131 127 123 119 115 117 116 112 114 108 97 92 82 84 88 90 91 95 91 86 78 74 82 76 74 71 58 56 41 41 19 8 345 330 329 333 322 325 325 322 317
255 225 250 254 250 264 265 44 92 226 259 21 31 5 282 278 279 275 272 271 276 285 281 227 212 253 247 109 158 169 197 201 204 206 202 202 200 197 191 184 173 167 160 159 150 144 138 127 121 123 117 111 115 113 106 100 96 103 106 110 117 117 114 102 92 93 87 85 84 80 77 77 60 59 42 3 25 4 350 328 342 330 326 320 319 315
115 308 2 295 287 281 55 309 82 223 256 83 344 276 265 259 252 256 260 268 264 253 253 263 176 242 276 136 174 184 220 216 209 202 203 200 195 191 188 182 177 170 171 163 151 148 139 135 132 121 119 121 109 106 107 111 125 137 154 154 149 131 118 110 103 98 102 100 95 88 82 79 79 59 56 330 8 328 332 324 326 332 328 330 322 320
74 102 11 260 277 355 305 179 232 243 290 318 274 275 251 232 239 225 247 256 271 245 254 238 175 239 281 177 179 182 208 220 201 195 193 193 192 189 186 183 180 177 176 172 164 158 151 145 141 144 138 125 124 124 137 150 157 166 161 151 124 115 107 107 106 108 105 106 101 101 96 84 66 39 359 323 296 318 306 308 317 311 314 308 319 320
211 172 213 170 289 250 293 230 199 232 276 271 272 275 288 268 230 234 231 226 244 256 112 132 202 211 256 176 183 194 180 210 200 189 189 190 189 186 183 186 183 179 179 175 171 167 162 162 167 167 152 149 141 145 146 140 139 120 100 100 105 104 100 108 116 132 125 133 138 114 106 48 17 347 323 324 314 312 306 295 291 289 284 281 289 288
228 217 175 157 179 258 211 254 188 205 205 235 256 254 275 295 271 262 213 225 217 280 117 118 162 222 228 268 4 179 186 198 204 195 188 187 186 185 184 185 184 183 184 182 180 173 171 176 171 171 155 145 145 144 142 121 95 87 76 65 49 84 120 126 153 160 166 182 173 254 297 301 305 287 288 293 291 290 288 290 289 289 288 285 276 275
271 135 175 183 184 194 253 253 193 205 184 232 255 295 284 282 289 278 273 282 291 238 122 163 113 261 279 235 118 182 185 182 196 199 191 188 185 184 184 185 186 188 190 188 185 180 177 179 174 166 165 160 159 158 137 114 113 97 344 347 297 136 128 152 175 186 213 212 230 258 278 290 282 283 280 279 280 276 277 279 279 279 281 286 280 276
281 236 196 181 191 145 220 253 339 332 330 305 328 279 273 287 286 283 279 282 287 313 61 152 261 267 271 90 114 107 67 120 187 202 191 190 187 184 186 188 189 191 193 191 191 189 178 178 178 174 183 177 170 178 185 192 212 229 243 245 249 252 241 251 262 269 270 279 279 281 277 278 283 284 284 281 282 280 275 274 274 272 273 272 278 278
262 272 88 126 54 184 200 62 305 312 269 202 292 266 245 261 15 274 324 312 302 303 291 223 229 276 282 121 109 121 129 189 189 189 186 186 186 185 190 193 195 195 195 196 194 192 189 184 187 189 196 206 204 210 221 224 227 232 239 243 250 254 259 261 263 267 274 274 272 269 272 272 274 278 284 283 284 283 280 279 277 276 271 269 270 270
213 259 115 131 179 186 119 189 198 270 283 101 227 243 5 30 293 294 263 241 316 247 260 246 251 244 133 163 145 150 165 172 186 186 190 187 187 188 195 196 198 199 199 200 198 198 194 197 198 206 209 216 222 226 227 234 235 238 242 248 254 258 257 258 260 261 262 259 259 260 262 262 265 266 268 273 275 277 278 276 273 271 272 270 265 264
281 294 147 166 196 157 32 263 254 233 279 282 253 344 83 21 296 261 281 259 239 270 272 248 251 264 260 252 160 156 188 176 185 194 190 189 192 194 198 199 199 200 202 201 204 202 202 205 209 215 220 226 228 234 239 243 244 245 248 253 261 266 269 267 264 261 259 260 259 258 258 259 259 262 265 267 270 270 271 268 268 267 266 264 262 261
302 275 229 195 214 139 167 209 212 201 228 251 320 53 273 248 238 169 259 265 273 265 276 251 260 260 258 261 154 176 181 178 184 189 189 194 198 203 200 201 200 200 201 201 204 203 205 209 216 220 227 234 236 240 246 247 246 243 243 252 259 263 264 267 269 268 262 257 256 256 257 257 258 257 260 261 263 264 264 265 266 268 268 270 270 269
220 269 265 145 212 142 198 212 253 193 175 237 263 251 214 268 262 269 225 270 285 278 286 277 271 264 229 257 129 128 172 175 178 186 197 200 202 203 202 201 200 201 202 202 203 205 205 212 221 224 229 236 237 237 235 240 242 246 252 258 259 258 257 259 260 260 260 258 257 257 255 255 256 258 259 259 261 263 264 266 269 270 270 270 272 270
264 175 272 138 146 191 240 208 234 247 208 189 216 238 194 232 324 293 279 262 256 270 267 282 274 259 290 91 128 100 107 166 180 191 201 207 208 205 206 202 203 203 201 201 202 205 210 217 223 232 231 239 246 249 251 246 248 255 259 262 260 261 262 263 264 265 265 265 262 261 258 256 254 255 256 258 260 262 264 267 268 269 272 274 272 274
251 233 250 268 231 222 250 43 19 341 303 282 277 271 269 265 233 237 261 230 239 247 255 263 268 273 138 124 118 11 110 139 188 210 214 216 211 208 205 204 203 203 198 198 201 208 209 210 222 236 236 242 251 253 254 259 255 253 255 255 259 258 260 266 266 264 267 266 267 266 265 262 261 260 259 259 261 261 262 262 263 265 266 267 270 271
290 308 274 259 264 268 8 73 13 321 309 270 275 269 267 264 264 260 267 263 244 241 263 268 288 275 110 117 124 120 129 131 141 234 249 232 222 210 207 201 201 201 193 190 191 198 210 222 238 240 251 253 252 255 259 257 252 253 253 255 257 261 266 268 271 272 271 271 270 269 269 269 267 265 264 263 261 262 262 264 263 262 264 265 267 267
125 253 256 257 260 256 221 142 151 212 249 252 240 245 251 242 246 254 259 296 283 261 237 245 244 258 126 109 130 139 141 143 154 216 212 237 227 211 204 195 194 192 187 180 184 196 205 221 219 225 228 233 229 228 232 234 245 248 250 259 267 270 274 274 275 276 275 274 273 272 271 270 270 270 270 268 266 265 266 268 270 270 269 270 270 267
247 205 250 277 277 269 228 190 229 193 226 236 253 223 231 250 255 263 282 286 262 251 262 262 262 265 122 176 157 180 176 168 195 167 193 253 203 198 196 196 199 195 186 186 191 199 205 212 224 233 237 234 236 239 235 247 262 272 273 273 275 276 277 277 278 278 277 276 277 276 275 275 275 273 270 269 269 269 269 268 268 266 266 266 267 267
241 271 260 259 266 267 261 255 286 220 202 229 241 249 227 238 226 214 234 233 245 253 250 245 256 265 198 163 184 206 203 213 193 172 168 226 216 187 191 193 191 188 186 189 196 200 205 213 227 237 241 251 259 269 277 277 275 276 279 279 282 281 280 279 281 281 284 283 282 282 280 280 280 278 278 277 275 275 275 274 273 273 272 271 270 270
261 259 256 256 262 264 274 287 330 335 292 260 257 244 246 231 231 236 255 261 256 264 256 247 253 272 267 239 249 254 211 243 223 206 215 184 173 172 181 187 193 190 185 189 184 180 186 214 232 252 263 271 276 277 276 280 283 282 284 285 283 283 284 286 288 288 287 287 285 285 284 282 282 283 282 281 280 279 278 277 277 276 276 275 273 272
251 260 248 252 254 261 272 274 279 281 275 274 275 272 263 249 237 239 238 249 267 275 264 258 262 268 270 272 273 287 292 237 247 250 224 177 166 182 185 185 182 177 175 172 186 194 208 223 244 252 261 266 272 277 280 284 288 291 290 290 288 287 288 288 288 287 286 286 285 284 287 289 288 288 286 285 285 285 286 285 282 282 280 278 274 273
253 260 259 259 262 261 261 267 274 273 271 267 267 269 266 261 250 240 245 247 249 251 261 274 277 277 277 274 281 286 286 260 255 253 231 196 182 181 181 182 186 188 182 191 182 185 206 230 239 251 259 266 274 279 285 289 292 294 292 289 289 288 287 289 287 288 288 287 289 290 291 291 289 287 287 286 284 283 279 279 279 279 277 275 275 272
265 253 265 263 270 268 263 269 270 268 266 262 259 258 257 256 256 256 255 250 245 251 260 269 272 268 268 275 280 285 254 239 262 262 207 205 201 192 193 194 194 192 191 193 189 195 221 240 263 272 279 283 286 292 296 298 296 294 293 291 290 289 288 289 288 288 290 291 292 291 290 290 289 287 285 284 282 281 281 280 278 275 275 273 271 271
241 259 267 272 273 267 267 266 265 264 265 265 261 258 253 253 256 255 259 252 247 256 261 264 265 266 266 271 274 270 173 246 259 226 228 225 211 199 199 196 199 205 197 198 192 238 273 279 284 288 290 292 297 301 299 292 292 293 291 291 291 291 293 291 292 294 293 290 290 291 289 288 286 287 286 287 285 285 284 283 282 284 281 279 277 272
232 270 270 269 268 269 265 265 267 268 265 264 263 256 253 253 252 250 245 243 247 256 259 260 260 262 272 253 191 181 203 209 216 219 219 209 201 194 207 207 203 199 213 234 264 291 295 299 299 300 302 303 301 297 295 296 295 295 295 298 298 295 294 297 294 291 289 290 289 287 288 288 290 290 289 289 288 287 285 284 284 279 277 276 274 273
256 267 267 263 263 267 271 272 273 272 272 263 251 253 252 249 250 252 247 244 246 247 254 257 258 269 283 150 178 170 185 201 207 214 204 201 204 201 205 215 211 192 217 305 308 304 303 306 309 306 302 296 299 300 297 298 298 297 297 296 295 298 300 295 293 292 291 290 290 292 294 293 291 292 291 290 290 288 289 285 281 281 280 276 275 277
262 258 261 265 267 271 274 279 286 276 255 246 251 262 244 243 241 244 244 242 242 236 244 254 266 267 145 180 195 187 182 197 204 184 194 198 185 200 209 194 192 188 296 293 303 303 308 307 304 301 298 297 293 296 303 301 295 292 295 299 302 300 297 295 293 292 293 294 295 295 295 294 293 292 291 290 288 287 285 283 282 282 281 279 277 275
256 257 257 258 266 266 273 276 264 250 247 265 273 256 248 248 248 248 251 247 247 244 245 249 255 215 223 190 210 188 186 160 166 167 172 175 182 192 183 181 196 250 302 303 303 307 306 301 296 295 297 297 304 303 297 294 296 303 303 302 300 299 298 297 298 297 297 297 298 297 296 294 292 292 291 288 287 285 284 285 284 281 277 277 276 273
250 250 255 254 256 265 264 251 253 241 254 275 253 228 208 245 246 255 255 255 252 251 250 254 252 259 205 186 161 161 154 153 163 178 165 162 175 181 187 200 244 297 300 304 303 298 298 301 303 300 299 301 300 298 300 303 307 304 301 301 300 300 299 298 297 297 297 298 297 297 295 294 293 293 291 291 290 289 288 287 285 281 279 278 274 269
237 250 250 259 237 254 249 258 254 272 273 264 258 202 200 216 210 215 247 243 248 247 249 252 253 232 167 170 151 143 144 158 201 194 180 177 163 166 190 233 276 287 287 287 292 296 300 297 295 301 303 303 300 301 304 305 303 302 301 301 300 299 298 297 297 297 297 296 295 296 296 296 296 295 295 293 291 290 289 288 284 283 280 276 274 272
231 239 241 252 242 235 256 263 264 262 258 260 254 258 219 220 229 241 244 261 252 250 239 239 240 181 170 154 153 146 154 199 212 195 157 156 153 169 177 220 246 261 275 288 294 296 301 306 307 305 303 300 300 303 302 304 305 302 299 299 299 299 298 297 297 296 295 295 297 299 299 297 296 294 293 291 291 291 290 288 286 283 280 278 278 278
238 239 246 247 256 246 249 251 255 259 260 265 279 195 167 167 208 212 239 258 243 200 185 216 207 174 170 157 149 150 176 215 233 136 132 131 157 167 222 252 276 290 294 300 307 313 314 312 310 302 300 302 302 306 307 304 301 298 298 300 300 300 299 296 295 296 297 297 297 295 294 293 294 293 293 294 295 295 293 290 288 293 298 299 298 288
250 244 237 243 246 246 250 248 254 245 265 270 216 170 167 163 149 187 249 253 75 105 158 175 161 161 154 152 150 172 192 211 259 98 124 124 154 182 248 279 291 300 307 312 312 315 316 306 293 298 305 305 306 307 303 302 299 298 298 298 300 298 296 296 298 299 297 296 296 296 296 296 294 294 297 299 301 302 301 304 302 292 287 284 286 286
242 242 237 241 243 248 244 254 261 266 258 238 182 151 147 157 186 213 236 46 124 105 110 134 145 146 147 150 161 171 198 40 68 96 98 133 166 223 236 271 293 301 303 309 311 321 302 300 304 308 309 307 307 308 307 305 303 301 301 300 298 296 295 296 297 296 295 295 294 295 297 299 299 299 299 301 302 304 301 296 290 290 288 287 285 280
253 253 243 244 245 244 245 255 255 263 265 166 146 127 141 146 203 223 49 86 116 105 91 115 119 125 144 156 168 149 74 63 57 61 264 315 308 313 295 298 297 305 309 309 312 294 298 304 306 305 306 307 308 308 307 308 305 302 302 301 298 299 301 300 299 297 296 294 294 298 299 299 296 292 298 302 305 304 298 295 297 296 294 293 286 281
273 267 259 249 247 243 248 258 256 256 90 123 117 75 208 237 318 68 111 66 54 105 100 104 125 134 149 146 101 60 87 104 151 334 317 287 292 297 307 310 312 309 310 308 297 302 313 307 307 308 309 310 311 311 310 310 307 306 307 303 307 308 304 302 298 296 297 298 298 299 298 296 292 298 307 310 307 303 301 302 303 302 300 295 296 294
305 278 268 261 250 265 257 245 247 3 28 359 263 242 83 40 58 32 20 134 66 112 129 123 128 145 151 139 140 168 192 235 233 254 290 299 301 308 300 298 296 300 302 304 308 314 315 308 307 309 311 311 313 314 315 312 310 310 311 309 313 310 306 301 300 300 300 298 299 298 296 294 296 304 307 306 305 302 299 301 304 302 301 303 295 287
171 260 318 286 308 274 280 312 59 290 276 57 53 63 59 68 52 27 6 45 140 128 138 136 135 162 191 181 211 212 220 216 263 297 300 310 299 292 294 303 309 308 306 304 305 310 313 307 308 309 310 312 313 316 314 314 313 314 310 310 309 305 305 305 304 303 301 301 299 297 294 294 298 302 308 308 306 306 299 301 307 306 299 295 292 285
289 296 290 286 283 286 270 241 233 194 224 25 40 38 12 359 52 63 165 156 196 172 176 178 178 183 196 209 220 213 232 265 277 285 287 286 289 291 301 303 304 306 306 304 301 314 308 306 306 309 311 315 318 316 314 315 315 311 309 308 307 307 309 309 308 306 304 303 298 294 293 293 297 303 309 308 308 306 296 304 308 303 298 294 292 291
284 280 266 255 271 283 270 116 218 226 350 313 331 335 318 299 247 241 210 210 182 174 197 200 217 207 207 212 219 252 266 273 282 288 289 290 295 302 304 304 304 304 306 302 310 307 304 309 310 312 317 316 318 316 315 316 313 310 309 309 308 309 313 314 310 309 309 303 299 297 294 293 299 308 309 307 310 309 306 307 309 308 304 300 298 298
276 17 346 291 261 244 263 308 312 48 313 276 245 215 249 238 241 216 221 191 181 186 200 204 189 210 203 218 227 244 254 270 280 282 287 296 301 306 304 304 308 306 306 304 296 302 305 308 312 316 317 317 317 319 317 314 313 313 312 310 310 312 314 313 312 311 306 300 298 296 294 295 302 305 313 314 312 305 303 301 301 306 304 306 305 303
283 330 273 309 309 302 282 196 178 148 193 214 214 233 254 224 197 199 214 194 187 193 202 211 212 223 219 233 237 245 260 273 276 281 290 298 302 301 307 313 309 306 297 295 306 308 307 312 313 315 316 317 319 318 317 314 314 315 316 316 313 314 313 309 308 307 303 299 297 295 302 305 307 314 319 324 319 309 298 294 303 302 301 304 304 311
265 250 248 260 262 257 262 8 359 266 252 167 202 198 185 184 215 216 208 213 215 215 214 225 220 231 237 240 242 244 260 275 283 287 290 302 306 312 312 309 306 292 290 301 308 306 306 310 314 317 320 319 319 318 320 320 317 317 317 319 317 315 311 310 310 305 300 302 303 307 310 308 307 320 324 324 320 313 307 299 291 289 302 313 314 314
249 249 242 245 248 260 174 197 273 271 291 295 257 260 267 278 264 253 248 240 236 232 230 228 233 228 234 244 240 248 259 275 290 302 296 302 314 318 313 306 295 292 303 313 306 307 311 313 316 319 321 320 318 320 326 322 320 321 322 320 317 313 311 310 306 301 299 306 306 308 309 306 312 321 325 323 319 314 311 312 311 312 324 321 313 313